User: anonymous   Login
Location: Unspecified
(0.0000°N, 0.0000°E)
Time: 08:58:32
(UTC+00:00)
Language:

HORYU 4 - Orbit

View from above orbital plane
View from above orbital plane
View from above satellite
View from above satellite

Ground track
Ground track

The orbit data is extracted from the following two-line orbital elements,

1 41340U 16012D   18111.92674678 +.00000659 +00000-0 +43645-4 0  9999
2 41340 031.0056 304.9411 0014319 255.6149 104.2898 15.00949250119436
Epoch (UTC): 21 April 2018 22:14:30
Eccentricity: 0.0014319
inclination: 31.0056°
perigee height: 554 km
apogee height: 574 km
right ascension of ascending node: 304.9411°
argument of perigee: 255.6149°
revolutions per day: 15.00949250
mean anomaly at epoch: 104.2898°
orbit number at epoch: 11943

The dashed part of the orbit path shows where the satellite is in the earth's shadow,  

DLR